{"data":{"norad_id":65685,"intl_designator":"2025-212K","name":"STARLINK-35145","alt_names":[],"object_type":"PAYLOAD","status":"ACTIVE","operator":null,"country":"US","launch_date":"2025-09-21","launch_site_code":"AFETR","launch_vehicle":null,"mission":null,"orbit_class":"UNKNOWN","rcs_meters":null,"size_class":null,"mass_kg":null,"dimensions":null,"purposes":["comms"],"wikipedia_slug":null,"has_3d_model":false,"image_url":null,"decayed_at":null,"tle_current":{"epoch":"2026-05-25T04:00:03.998880Z","epoch_age_seconds":60714,"freshness":"FRESH","line1":"1 65685U 25212K   26145.16671295 -.00012457  00000+0 -36802-3 0  9999","line2":"2 65685  53.1596 350.5995 0000999  75.3409 167.6301 15.33552465  5853","mean_motion":15.33552465,"eccentricity":9.99e-5,"inclination_deg":53.1596,"raan_deg":350.5995,"arg_perigee_deg":75.3409,"mean_anomaly_deg":167.6301,"bstar":-0.00036802,"rev_number":585,"period_min":93.899624099264,"perigee_km":464.53980120881,"apogee_km":465.90710462731,"semimajor_km":6843.3604529181,"source":"CELESTRAK","updated_at":"2026-05-25T13:38:20.895334Z"}}}